Regional Weather Roundup
Issued by NWS

Home | Current Version | Previous Version | Graphics & Text | Print | Product List | Glossary On
Versions: 1 2 3 4 5 6 7 8 9 10 11 12 13 14 15 16 17 18 19 20 21 22 23 24 25 26 27 28 29 30 31 32 33 34 35 36 37 38 39 40 41 42 43 44 45 46 47 48 49 50
239
ASUS43 KLMK 192110
RWRKY
KENTUCKY REGIONAL WEATHER ROUNDUP
NATIONAL WEATHER SERVICE LOUISVILLE KY
500 PM EDT THU OCT 19 2017

NOTE "FAIR" INDICATES FEW OR NO CLOUDS BELOW 12,000 FEET
WITH NO SIGNIFICANT WEATHER AND/OR OBSTRUCTIONS TO VISIBILITY.

KYZ001>023-026-027-061>063-070>075-192200-
WESTERN AND SOUTH CENTRAL KENTUCKY

CITY           SKY/WX    TMP DP  RH WIND       PRES   REMARKS
PADUCAH        SUNNY     77  49  37 S5        30.18F
HENDERSON      SUNNY     77  52  41 S9        30.19F
OWENSBORO      SUNNY     76  52  43 S9        30.20S
HOPKINSVILLE   SUNNY     74  49  40 S7        30.21F
BOWLING GREEN  SUNNY     74  47  38 S6        30.23S
GLASGOW        SUNNY     73  48  40 S5        30.23F
$$

KYZ024-025-028>034-038-045-046-053-192200-
NORTH CENTRAL KENTUCKY

CITY           SKY/WX    TMP DP  RH WIND       PRES   REMARKS
LOUISVILLE/SDF MOSUNNY   75  50  41 SW9       30.20S
LOUISVILLE/LOU SUNNY     74  53  48 SW6       30.21S
FORT KNOX      SUNNY     72  50  44 S10       30.20S
$$

KYZ035>037-039>044-047>052-055>060-089>105-192200-
NORTHEAST KENTUCKY

CITY           SKY/WX    TMP DP  RH WIND       PRES   REMARKS
LEXINGTON      SUNNY     71  49  45 SW9       30.23S
COVINGTON      SUNNY     73  52  47 SW6       30.20S
FRANKFORT      SUNNY     72  48  42 SW8       30.21F
$$

KYZ054-064>069-076>088-106>120-192200-
SOUTHEAST KENTUCKY

CITY           SKY/WX    TMP DP  RH WIND       PRES   REMARKS
JACKSON        SUNNY     69  46  43 CALM      30.25F
LONDON         SUNNY     70  43  37 S6        30.25F
SOMERSET       SUNNY     70  45  40 W5        30.26F
MIDDLESBORO    SUNNY     72  46  40 S6        30.25F
MONTICELLO     CLEAR     72  49  44 W14       30.26F
$$





USA.gov is the U.S. government's official web portal to all federal, state and local government web resources and services.